Regional Weather Roundup
Issued by NWS

Home | Current Version | Previous Version | Graphics & Text | Print | Product List | Glossary On
Versions: 1 2 3 4 5 6 7 8 9 10 11 12 13 14 15 16 17 18 19 20 21 22 23 24 25 26 27 28
000
ASUS45 KPSR 210710
RWRAZ

ARIZONA HOURLY REGIONAL WEATHER ROUNDUP
NATIONAL WEATHER SERVICE PHOENIX AZ
1200 AM MST MON AUG 21 2017

NOTE: FAIR INDICATES FEW OR NO CLOUDS BELOW 12,000 FEET WITH NO
SIGNIFICANT WEATHER AND/OR OBSTRUCTIONS TO VISIBILITY.

AZZ001>003-036-210800-
NORTHWEST ARIZONA

CITY           SKY/WX    TMP DP  RH WIND       PRES   REMARKS
BULLHEAD CITY  CLOUDY    95  50  21 S16       29.83S
KINGMAN        CLOUDY    78  52  40 W6        30.04S
$$

AZZ004>008-015-016-018-210800-
NORTH CENTRAL ARIZONA

CITY           SKY/WX    TMP DP  RH WIND       PRES   REMARKS
GRAND CANYON   CLOUDY    57  49  74 N3        30.31R
WILLIAMS       CLOUDY    59  52  77 CALM      30.29R
PRESCOTT       MOCLDY    66  54  65 S5        30.18R
FLAGSTAFF      CLOUDY    57  50  77 SW7       30.33R
PAYSON           N/A     64  52  63 N3        30.20S
PAGE           MOCLDY    80  44  27 W3        30.09S
$$

AZZ009>014-017-210800-
NORTHEAST ARIZONA

CITY           SKY/WX    TMP DP  RH WIND       PRES   REMARKS
WINSLOW        CLOUDY    71  51  49 SW7       30.15S
SAINT JOHNS    CLOUDY    64  56  75 E7        30.24S
WINDOW ROCK    CLOUDY    57  54  89 CALM      30.28F
SHOW LOW       CLOUDY    59  54  82 CALM      30.29R
$$

AZZ540-542>544-546-548-210800-
GREATER PHOENIX AREA

CITY           SKY/WX    TMP DP  RH WIND       PRES   REMARKS
PHOENIX        MOCLDY    92  55  28 E13       29.85R
BUCKEYE        PTCLDY    86  52  30 E7        29.85S
LUKE AFB       MOCLDY    88  57  34 N8        29.85R
DEER VALLEY    PTCLDY    89  52  28 NE8       29.88R
SCOTTSDALE     PTCLDY    87  54  32 CALM      29.89S
MESA-GATEWAY   MOCLDY    86  55  35 SE3       29.89R
$$

AZZ539-553-210800-
SOUTHWEST MARICOPA COUNTY AND PINAL COUNTY

CITY           SKY/WX    TMP DP  RH WIND       PRES   REMARKS
CASA GRANDE    PTCLDY    85  59  41 E3        29.90S
GILA BEND      CLOUDY    93  48  20 SW6       29.83R
$$

AZZ503-504-507>509-210800-
SOUTHEAST ARIZONA

CITY           SKY/WX    TMP DP  RH WIND       PRES   REMARKS
TUCSON         NOT AVBL
DAVIS-MONTHAN  PTCLDY    83  54  36 SE8       29.98S
NOGALES        PTCLDY    70  59  68 SE3       30.09S
SIERRA VISTA   MOCLDY    67  52  59 W6        30.16S
DOUGLAS        PTCLDY    65  59  81 E3        30.12S
SAFFORD        PTCLDY    72  59  63 W9        30.05R
$$

AZZ532-210800-
SOUTHWEST ARIZONA

CITY           SKY/WX    TMP DP  RH WIND       PRES   REMARKS
YUMA           PTCLDY    89  56  32 S7        29.80R
$$

CAZ041-043-047-048-061-525>527-560>570-210800-
SOUTHERN CALIFORNIA

CITY           SKY/WX    TMP DP  RH WIND       PRES   REMARKS
DOWNTOWN L.A.  CLOUDY    69  60  73 CALM      29.96S
L.A. AIRPORT   MOCLDY    68  61  78 W5        29.97R
SAN DIEGO      CLOUDY    69  61  75 SW6       29.98R
BURBANK        CLOUDY    65  58  78 S6        29.97S
ONTARIO        PTCLDY    65  60  84 W9        29.97S
RIVERSIDE      CLEAR     65  61  87 W3        29.97S
PALM SPRINGS   CLEAR     85  56  37 W6        29.82S
EL CENTRO NAS  CLEAR     86  47  25 W13       29.79R
IMPERIAL       CLEAR     86  53  32 CALM      29.77R
BLYTHE         CLOUDY    96  47  18 SW10      29.80R
NEEDLES        MOCLDY    93  58  30 SE7       29.85R
$$

NVZ020-UTZ003-210800-
SOUTHERN NEVADA-UTAH

CITY           SKY/WX    TMP DP  RH WIND       PRES   REMARKS
LAS VEGAS      CLOUDY    91  47  21 S7        29.91R
SALT LAKE CITY PTCLDY    75  41  29 S7        30.03R
$$

NMZ009-TXZ055-210800-
NEW MEXICO-WEST TEXAS

CITY           SKY/WX    TMP DP  RH WIND       PRES   REMARKS
ALBUQUERQUE    RAIN      60  59  96 W6        30.22S FOG
EL PASO        CLOUDY    72  68  87 N7        30.12S
$$


........................KEY........................
SKY/WX - SKY CONDITION/WEATHER
TMP    - TEMPERATURE IN FAHRENHEIT
DP     - DEW POINT IN FAHRENHEIT
RH     - RELATIVE HUMIDITY IN PERCENT
WIND   - DIRECTION AND SPEED IN MILES PER HOUR (MPH)
VRB    - VARIABLE WIND DIRECTION
PRES   - MEAN SEA LEVEL PRESSURE IN INCHES OF MERCURY
         F - FALLING PRESSURE   R - RISING PRESSURE
         S - STEADY PRESSURE
VSB    - VISIBILITY IN MILES
HX     - HEAT INDEX IN FAHRENHEIT
WCI    - WIND CHILL INDEX IN FAHRENHEIT
TC     - TEMPERATURE IN CELSIUS WHICH IS ALSO KNOWN AS
         TEMPERATURE IN CENTIGRADE
AFB    - AIR FORCE BASE
         LUKE AFB IS LUKE AIR FORCE BASE
         DAVIS-MONTHAN IS DAVIS-MONTHAN AIR FORCE BASE
NAS    - NAVAL AIR STATION
         EL CENTRO NAS IS EL CENTRO NAVAL AIR STATION
N/A    - NOT AVAILABLE





USA.gov is the U.S. government's official web portal to all federal, state and local government web resources and services.